STARLINK-1602 (46121 NORAD) Tracking and Keplerian Element Data

This shows tracking and keplerian element data for the satellite.

Feedback or suggestion? Click here.




ElementValue
Catalog46121
NameSTARLINK-1602
Epoch Orbit176
Epoch Day338.66668981
Epoch Year2020
RAAN284.9044
Inclination53.0021
Eccentricity0.0001831
Argument of Perigee65.9781
Mean Anonmoly269.4076
Mean Motion15.05596773
Decay Rate-0.00019894
L11 46121U 20057E 20338.66668981 -.00019894 00000-0 -13494-2 0 9990
L22 46121 53.0021 284.9044 0001831 65.9781 269.4076 15.05596773 1763

Live tracking and technical data element details for STARLINK-1602 (NORAD 46121). STARLINK-1602 can be tracked NOW for your location showing map with azimuth and elevation plus other details from your city location.

Track the satellite on the map from your city or location and see movement details for azimuth, elevation, latitude, longitude, range, height, and movement on the map or in text.







IsCatalogInMostPopularTable: catalog: 46121, numindb: 13
Update: records affected: 1



GetName: 46121 STARLINK-1602

Hit Count: updated at: Sun, 06 Dec 2020 00:50:21 GMT